EW4423 Weather Reports


Display with metric or nautical units.
time (UTC)temp
F
wind
direction
speed
MPH
gust
MPH
rain 1hr
in
rain 24hr
in
rain mn
in
humidity
%
barometer
mb
20260831071519 82 162 4.0 8.0 0.00 0.00 0.00 57 1017.0
20260831070026 83 168 5.0 8.0 0.00 0.00 0.00 56 1016.8
20260831064524 83 144 5.0 12.0 0.00 0.00 0.00 55 1017.0
20260831063010 84 167 6.0 10.0 0.00 0.00 0.00 54 1017.1
20260831061510 84 143 7.0 13.0 0.00 0.00 0.00 54 1017.1
20260831060015 84 152 7.0 11.0 0.00 0.00 0.00 53 1017.1
20260831054515 85 148 6.0 10.0 0.00 0.00 0.00 52 1016.9
20260831053030 85 150 5.0 9.0 0.00 0.00 0.00 51 1016.8
20260831051507 86 148 7.0 10.0 0.00 0.00 0.00 50 1016.7
20260831050011 86 119 6.0 11.0 0.00 0.00 0.00 49 1016.6
20260831044520 86 143 6.0 9.0 0.00 0.00 0.00 48 1016.6
20260831043014 87 126 4.0 10.0 0.00 0.00 0.00 47 1016.5
20260831041525 87 129 4.0 10.0 0.00 0.00 0.00 46 1016.4
20260831040011 87 130 5.0 8.0 0.00 0.00 0.00 46 1016.4
20260831034514 88 132 5.0 10.0 0.00 0.00 0.00 45 1016.3
20260831033020 88 124 7.0 12.0 0.00 0.00 0.00 44 1016.2
20260831031518 87 110 4.0 8.0 0.00 0.00 0.00 43 1016.1
20260831030026 86 109 4.0 7.0 0.00 0.00 0.00 44 1015.9
20260831024513 85 133 2.0 3.0 0.00 0.00 0.00 44 1015.8
20260831023016 86 133 1.0 2.0 0.00 0.00 0.00 44 1015.6
20260831021531 87 133 2.0 4.0 0.00 0.00 0.00 42 1015.4
20260831020010 87 133 2.0 4.0 0.00 0.00 0.00 41 1015.2
20260831014524 89 153 3.0 4.0 0.00 0.00 0.00 39 1015.0
20260831013013 90 149 2.0 4.0 0.00 0.00 0.00 39 1014.9
20260831011518 90 161 3.0 4.0 0.00 0.00 0.00 38 1014.8
20260831010040 91 184 2.0 3.0 0.00 0.00 0.00 37 1014.6
20260831004534 93 185 2.0 2.0 0.00 0.00 0.00 37 1014.6
20260831003020 94 185 1.0 4.0 0.00 0.00 0.00 34 1014.6
20260831001540 96 182 3.0 4.0 0.00 0.00 0.00 33 1014.5
20260831000017 98 212 2.0 7.0 0.00 0.00 0.00 32 1014.6
20260830234541 99 205 4.0 7.0 0.00 0.00 0.00 30 1014.7
20260830233034 100 255 3.0 7.0 0.00 0.00 0.00 29 1014.7
20260830231519 100 298 1.0 3.0 0.00 0.00 0.00 30 1014.7
20260830230030 98 193 0.0 3.0 0.00 0.00 0.00 32 1014.8
20260830224533 99 193 1.0 5.0 0.00 0.00 0.00 31 1014.9
20260830223024 103 183 5.0 12.0 0.00 0.00 0.00 28 1014.9
20260830221531 102 143 4.0 9.0 0.00 0.00 0.00 29 1014.9
20260830220026 104 154 2.0 9.0 0.00 0.00 0.00 28 1015.0
20260830214519 103 122 7.0 12.0 0.00 0.00 0.00 28 1015.1
20260830213031 103 160 3.0 13.0 0.00 0.00 0.00 28 1015.2
20260830211523 104 169 6.0 11.0 0.00 0.00 0.00 27 1015.5
20260830210033 103 276 6.0 13.0 0.00 0.00 0.00 28 1015.5
20260830204533 104 252 10.0 16.0 0.00 0.00 0.00 28 1015.8
20260830203027 105 163 8.0 16.0 0.00 0.00 0.00 29 1016.0
20260830201559 103 198 6.0 10.0 0.00 0.00 0.00 30 1016.1
20260830200022 102 68 3.0 11.0 0.00 0.00 0.00 31 1016.4
20260830194529 99 186 5.0 10.0 0.00 0.00 0.00 33 1016.8
20260830193040 102 245 3.0 9.0 0.00 0.00 0.00 29 1017.0
20260830191531 103 188 5.0 16.0 0.00 0.00 0.00 30 1017.2
20260830190032 103 212 7.0 13.0 0.00 0.00 0.00 31 1017.3
20260830184533 103 220 5.0 9.0 0.00 0.00 0.00 35 1017.5
20260830183030 103 159 4.0 14.0 0.00 0.00 0.00 32 1017.8
20260830181540 99 183 6.0 9.0 0.00 0.00 0.00 38 1017.9
20260830180025 99 224 6.0 14.0 0.00 0.00 0.00 38 1018.0
20260830174530 99 188 8.0 17.0 0.00 0.00 0.00 39 1018.3
20260830173025 98 360 2.0 12.0 0.00 0.00 0.00 42 1018.3
20260830171513 98 191 5.0 10.0 0.00 0.00 0.00 41 1018.6
20260830170019 97 237 6.0 12.0 0.00 0.00 0.00 43 1018.8
20260830164522 97 196 5.0 12.0 0.00 0.00 0.00 44 1018.9
20260830163034 96 261 5.0 10.0 0.00 0.00 0.00 46 1019.1
20260830161517 93 280 5.0 12.0 0.00 0.00 0.00 49 1019.2
20260830160017 91 301 3.0 9.0 0.00 0.00 0.00 53 1019.2
20260830154524 91 259 6.0 10.0 0.00 0.00 0.00 52 1019.2
20260830153034 91 221 3.0 10.0 0.00 0.00 0.00 53 1019.3
20260830151532 90 243 3.0 9.0 0.00 0.00 0.00 55 1019.2
20260830150036 89 266 4.0 9.0 0.00 0.00 0.00 56 1019.3
20260830144536 87 252 4.0 10.0 0.00 0.00 0.00 60 1019.3
20260830143003 86 213 5.0 9.0 0.00 0.00 0.00 62 1019.3
20260830141504 84 264 4.0 12.0 0.00 0.00 0.00 64 1019.3
20260830140006 83 225 5.0 9.0 0.00 0.00 0.00 65 1019.4
20260830134515 82 233 5.0 9.0 0.00 0.00 0.00 68 1019.4
20260830133035 81 255 5.0 7.0 0.00 0.00 0.00 68 1019.3
20260830131507 80 226 3.0 7.0 0.00 0.00 0.00 69 1019.2
20260830130007 79 203 4.0 6.0 0.00 0.00 0.00 69 1019.1
20260830124514 77 182 2.0 4.0 0.00 0.00 0.00 71 1018.9
20260830123011 77 203 3.0 4.0 0.00 0.00 0.00 70 1018.7
20260830121523 76 210 4.0 6.0 0.00 0.00 0.00 71 1018.5
20260830120006 76 200 4.0 7.0 0.00 0.00 0.00 71 1018.3
20260830114509 74 219 5.0 7.0 0.00 0.00 0.00 70 1018.1
20260830113033 74 181 1.0 4.0 0.00 0.00 0.00 70 1017.9
20260830111510 75 172 2.0 5.0 0.00 0.00 0.00 69 1017.7
20260830110027 75 158 4.0 5.0 0.00 0.00 0.00 67 1017.6
20260830104530 76 175 2.0 6.0 0.00 0.00 0.00 66 1017.5
20260830103012 76 155 5.0 7.0 0.00 0.00 0.00 65 1017.3
20260830101529 76 143 5.0 6.0 0.00 0.00 0.00 64 1017.2
20260830100013 77 135 3.0 6.0 0.00 0.00 0.00 64 1017.3
20260830094554 77 133 3.0 5.0 0.00 0.00 0.00 63 1017.2
20260830093009 77 125 2.0 4.0 0.00 0.00 0.00 62 1017.3
20260830091515 77 126 2.0 4.0 0.00 0.00 0.00 62 1017.4
20260830090041 78 136 2.0 3.0 0.00 0.00 0.00 60 1017.3
20260830084527 78 135 1.0 4.0 0.00 0.00 0.00 59 1017.4
20260830083020 79 127 2.0 5.0 0.00 0.00 0.00 58 1017.5
20260830081532 79 136 2.0 5.0 0.00 0.00 0.00 58 1017.5
20260830080029 79 122 2.0 4.0 0.00 0.00 0.00 57 1017.5
20260830074524 80 116 2.0 5.0 0.00 0.00 0.00 56 1017.6
20260830073031 79 123 2.0 4.0 0.00 0.00 0.00 57 1017.7